Regional Weather Roundup
Issued by NWS Kansas City/Pleasant Hill, MO

Home | Current Version | Previous Version | Text Only | Print | Product List | Glossary On
Versions: 1 2 3 4 5 6 7 8 9 10 11 12 13 14 15 16 17 18 19 20 21 22 23 24 25 26 27 28
000
ASUS43 KEAX 231810
RWREAX

WEATHER ROUNDUP FOR EASTERN KANSAS AND NORTHWEST MISSOURI
NATIONAL WEATHER SERVICE KANSAS CITY/PLEASANT HILL MO
100 PM CDT SUN APR 23 2017

KSZ040-057-103>105-MOZ028-029-037-043-231900-
...KANSAS CITY METROPOLITAN AREA...

CITY           SKY/WX    TMP DP  RH WIND       PRES   REMARKS
K.C. INTL      MOSUNNY   65  32  29 VRB3      30.14F
6HR MIN TEMP:  42; 6HR MAX TEMP:  66;

K.C. DOWNTOWN  SUNNY     67  30  25 VRB3      30.13F
6HR MIN TEMP:  41; 6HR MAX TEMP:  68;

LEES SUMMIT    SUNNY     65  31  28 S5        30.13F
6HR MIN TEMP:  42; 6HR MAX TEMP:  65;

OLATHE - IXD   SUNNY     64  33  31 NW6       30.15F
6HR MIN TEMP:  39; 6HR MAX TEMP:  65;

OLATHE - OJC   SUNNY     63  29  27 CALM      30.14F
6HR MIN TEMP:  41; 6HR MAX TEMP:  63;

LAWRENCE       SUNNY     66  31  27 SE6       30.14F

$$

MOZ001>008-011>017-020>025-030>033-038>040-044>046-053-054-231900-
...NORTHERN AND CENTRAL MISSOURI...

CITY           SKY/WX    TMP DP  RH WIND       PRES   REMARKS
ST. JOSEPH     SUNNY     66  32  28 CALM      30.13F
6HR MIN TEMP:  34; 6HR MAX TEMP:  66;

MOSBY          CLEAR     64  28  25 CALM      30.13F
WHITEMAN AFB   SUNNY     64  30  27 CALM      30.11F
6HR MIN TEMP:  39; 6HR MAX TEMP:  66;

CLINTON        SUNNY     64  36  34 N8        30.13F
SEDALIA        NOT AVBL
WARSAW         NOT AVBL
CHILLICOTHE      N/A     68  31  25 CALM      30.13F
6HR MIN TEMP:  36; 6HR MAX TEMP:  68;

KIRKSVILLE     SUNNY     68  33  27 NE8       30.12F
6HR MIN TEMP:  35; 6HR MAX TEMP:  68;


$$

MOZ041-047>049-056>058-063>065-088>090-097-231900-
...EASTERN AND SOUTHERN MISSOURI...

CITY           SKY/WX    TMP DP  RH WIND       PRES   REMARKS
ST. LOUIS INTL SUNNY     68  30  24 NE14G22   30.07F
6HR MIN TEMP:  47; 6HR MAX TEMP:  68;

SPIRIT OF STL  SUNNY     66  34  30 N14       30.07F
COLUMBIA       SUNNY     67  34  29 N15       30.11F
JEFFERSON CITY SUNNY     68  31  25 VRB3      30.10F
ROLLA          SUNNY     63  35  35 NE13      30.08F
OSAGE BEACH    SUNNY     64  32  30 NE10      30.11F
SPRINGFIELD    SUNNY     64  36  35 N12       30.10F
BRANSON        SUNNY     63  36  36 N12       30.09F
JOPLIN         SUNNY     63  38  39 NE7       30.14F
WEST PLAINS    SUNNY     65  37  35 N12G23    30.04F

$$

IAZ060-094-KSZ022-034>040-054-083-096-NEZ052-066-093-231900-
...KANSAS...SOUTHEAST NEBRASKA AND IOWA...

CITY           SKY/WX    TMP DP  RH WIND       PRES   REMARKS
TOPEKA         SUNNY     65  36  34 SW7       30.14F
6HR MIN TEMP:  37; 6HR MAX TEMP:  66;

MANHATTAN      SUNNY     66  31  27 VRB5      30.14F
EMPORIA        SUNNY     63  36  36 E6        30.15F
CHANUTE        SUNNY     64  36  35 N6        30.16F
WICHITA        MOSUNNY   63  32  31 CALM      30.16F
OMAHA          MOSUNNY   69  26  20 SW12G21   30.09F
LINCOLN        SUNNY     69  30  23 SW16      30.11F
FALLS CITY     SUNNY     66  34  30 S6        30.12F
LAMONI         SUNNY     66  32  28 VRB3      30.13F
DES MOINES     MOSUNNY   69  32  25 S10       30.10F

$$





USA.gov is the U.S. government's official web portal to all federal, state and local government web resources and services.